Terug naar catalogus

IRNSS 1D

ActiefNavigatieGEO
NORAD 40547·PAYLOAD·🇮🇳 India

Gelanceerd Mar 28, 2015 vanaf Satish Dhawan Space Centre

Loading…

TLE

VersSource: Space-Track

Epoch: Sep 14, 2026, 21:11 UTC

1 40547U 15018A   26257.88274057 -.00000068  00000-0  00000-0 0  9993
2 40547  19.4000 237.1655 0009262 348.2519 200.5230  0.97958337 41789

Volg IRNSS 1D in realtime met AllMySat

Download on the App Store